SL-16 DEB, 22618

Orbit data source: Space-Track

SL-16 DEB, 22618 is space debris in LEO originally from a launch on Fri, 26 Mar 1993 UTC launched from the Tyuratam Missile And Space Complex (TTMTR). Debris objects in space refer to the collection of defunct objects orbiting the Earth. Examples of debris include non-operational satellites, rocket bodies, and fragments generated from explosions, collisions, or faulty payload assembly.

Loading next visibility...
Identifier
22618, 1993-016AC
Orbit
LEO
Country
Flag of CISCIS
Related business
Manufacturer
Unknown
Mission
Spacecraft
Bus & Motor
Unknown
Mass
Unknown
Launch date (UTC)
1993-03-26 (33 years ago)
Launch vehicle
Unknown
Launch site
Tyuratam Missile And Space Complex (TTMTR)
Object type
Payload
Rocket body
Debris
Shape & HBR
Unknown shape, 0.2 m
Radar Cross Section
Medium (>0.1 m² and <1 m²)

Expand to show TLE details & history
Last TLE update: 16 hours ago

TLE from 16 hours ago
0 SL-16 DEB
1 22618U 93016AC  26255.07902627  .00000159  00000-0  16738-3 0  9994
2 22618  70.9919 127.6240 0155138 176.1029 184.1328 13.83604407686505
Epoch: 2026-09-12T01:53Z
TLE epoch observation values (Epoch: 2026-09-12T01:53:47.869Z)
Latitude
0.00001°
Longitude
108.08137°
Altitude
1,066.929 km
Speed
7.262 km/s
True Right ascension
08h 30m 29s
True Declination
0° 00' 00"
Sunlit
Object was in daylight at epoch
Visualization orbit readout
Latitude
Unknown
Longitude
Unknown
Altitude
Unknown
Speed
Unknown
Apparent Right ascension
Unknown
Apparent Declination
Unknown
Sunlit
N/A
Visualization observer readout
Local Sidereal Time
10:39:00
Azimuth
Unknown
Elevation
Unknown
Doppler factor
Unknown
Orbital elements
Apogee altitude
1,062.759 km
Perigee altitude
835.413 km
Semi-major axis
7,327.223 km
Eccentricity
0.01551
Inclination
70.9919°
RAAN
127.624°
Arg. of periapsis
176.1029°
True anomaly
184.00711°
Mean anomaly
184.1328°
Eccentric anomaly
184.06972°
Mean motion
3.46046 °/min
Orbital period
104.03 mins
BSTAR
0.00016738
Loading maneuver chart data...
Computing Atmospheric mass density...
Loading historical data...
Loading historical data...
Loading historical data...
Loading historical data...
Loading historical data...
Loading historical data...
Loading historical data...

Documentation

Showing up to 5 results
|